Location: Unspecified
(0.0000°N, 0.0000°E)
Time: 18:58:54
(UTC+00:00)

Vanguard 2 Rocket - Pass Details

Date: 23 January 2020
Orbit: 554 x 3327 km, 32.9° (Epoch: 20 February)

Event Time Altitude Azimuth Distance (km) Brightness Sun altitude
Rises 21:14:14 0° 218° (SW) 6,111 11.8 -42.4°
Reaches altitude 10° 21:22:49 10° 191° (S) 4,263 10.6 -44.3°
Maximum altitude 21:26:11 12° 173° (S) 3,762 10.2 -45.0°
Enters shadow 21:28:07 11° 160° (SSE) 3,599 10.0 -45.4°
Drops below altitude 10° 21:29:05 10° 154° (SSE) 3,561 - -45.7°
Sets 21:34:17 0° 122° (ESE) 3,919 - -46.8°
